DELTA 1 DEB, 10757

Orbit data source: Space-Track

DELTA 1 DEB, 10757 is space debris in SSO originally from a launch on Thu, 29 Jul 1976 UTC launched from the Air Force Western Test Range (AFWTR). Debris objects in space refer to the collection of defunct objects orbiting the Earth. Examples of debris include non-operational satellites, rocket bodies, and fragments generated from explosions, collisions, or faulty payload assembly.

Loading next visibility...
Identifier
10757, 1976-077BE
Orbit
SSO
Country
Flag of USUS
Related business
Manufacturer
Unknown
Mission
Spacecraft
Bus & Motor
Unknown
Mass
Unknown
Launch date (UTC)
1976-07-29 (50 years ago)
Launch vehicle
Unknown
Launch site
Air Force Western Test Range (AFWTR)
Object type
Payload
Rocket body
Debris
Shape & HBR
Unknown shape, 0.1 m
Radar Cross Section
Small (<0.1 m²)

Expand to show TLE details & history
Last TLE update: 10 hours ago

TLE from 10 hours ago
0 DELTA 1 DEB
1 10757U 76077BE  26126.38004029  .00000054  00000-0  10416-2 0  9993
2 10757 101.9017 176.6143 0236045 118.6560 260.8626 12.00497829178677
Epoch: 2026-05-06T09:07Z
TLE epoch observation values (Epoch: 2026-05-06T09:07:15.481Z)
Latitude
16.47585°
Longitude
172.00167°
Altitude
1,715.069 km
Speed
7.005 km/s
True Right ascension
11h 32m 13s
True Declination
16° 23' 37"
Sunlit
Object was in daylight at epoch
Visualization orbit readout
Latitude
Unknown
Longitude
Unknown
Altitude
Unknown
Speed
Unknown
Apparent Right ascension
Unknown
Apparent Declination
Unknown
Sunlit
N/A
Visualization observer readout
Local Sidereal Time
02:57:43
Azimuth
Unknown
Elevation
Unknown
Doppler factor
Unknown
Orbital elements
Apogee altitude
1,866.371 km
Perigee altitude
1,486.131 km
Semi-major axis
8,054.388 km
Eccentricity
0.0236
Inclination
101.9017°
RAAN
176.6143°
Arg. of periapsis
118.656°
True anomaly
258.20546°
Mean anomaly
260.8626°
Eccentric anomaly
259.53267°
Mean motion
3.00258 °/min
Orbital period
119.9 mins
BSTAR
0.0010416
Loading maneuver chart data...
Computing Atmospheric mass density...
Loading historical data...
Loading historical data...
Loading historical data...
Loading historical data...
Loading historical data...
Loading historical data...
Loading historical data...

Documentation

Showing up to 5 results
|